Tracking 28125 objects as of 2-Oct-2023
HD Live streaming from Space Station
objects crossing your sky now

CLUSTER II-FM7

Track CLUSTER II-FM7 now!
CLUSTER II-FM7 is classified as:


NORAD ID: 26411
Int'l Code: 2000-041B
Perigee: 4,698.1 km
Apogee: 128,133.9 km
Inclination: 142.9 °
Period: 3,257.2 minutes
Semi major axis: 72787 km
RCS: 1.5887 m2 (large)
Launch date: July 16, 2000
Source: European Space Agency (ESA)
Launch site: TYURATAM MISSILE AND SPACE COMPLEX (TTMTR)
Your satellite tracking list
Your tracking list is empty




NASA's NSSDC Master Catalog

Two Line Element Set (TLE):
1 26411U 00041B   23276.52403756  .00000399  00000-0  00000-0 0  9992
2 26411 142.9405   4.9546 8479243 218.9311   0.8660  0.44210149 15978
Source of the keplerian elements: AFSPC